• în România
  • Lista ţărilor
  • Pe 7 zile
  • Temperatura apei
  • Hartă satelitară
  • Meteo pe hartă
  • Widget-uri
  • user-avatar
    Intrare

    Meteo pe oră la Kipungo

    Astăzi, 29 Mai, Luni

    Timp Temperatura Precipitaţii Vânt Presiune Umiditate
    00:00 +18°C° 0 mm 1 m/s 654 mmHg 43%
    01:00 +16°C° 0 mm 1 m/s 654 mmHg 44%
    02:00 +15°C° 0 mm 1 m/s 654 mmHg 46%
    03:00 +14°C° 0 mm 1 m/s 653 mmHg 49%
    04:00 +13°C° 0 mm 1 m/s 653 mmHg 51%
    05:00 +14°C° 0 mm 1 m/s 654 mmHg 52%
    06:00 +15°C° 0 mm 1 m/s 654 mmHg 53%
    07:00 +14°C° 0 mm 0 m/s 654 mmHg 54%
    08:00 +20°C° 0 mm 1 m/s 655 mmHg 47%
    09:00 +24°C° 0 mm 2 m/s 657 mmHg 39%
    10:00 +28°C° 0 mm 2 m/s 658 mmHg 32%
    11:00 +29°C° 0 mm 2 m/s 658 mmHg 29%
    12:00 +31°C° 0 mm 2 m/s 658 mmHg 25%
    13:00 +34°C° 0 mm 2 m/s 657 mmHg 22%
    14:00 +32°C° 0 mm 1 m/s 657 mmHg 25%
    15:00 +30°C° 0 mm 1 m/s 656 mmHg 27%
    16:00 +29°C° 0 mm 1 m/s 655 mmHg 30%
    17:00 +27°C° 0 mm 1 m/s 655 mmHg 35%
    18:00 +24°C° 0 mm 1 m/s 655 mmHg 40%
    19:00 +22°C° 0 mm 1 m/s 655 mmHg 46%
    20:00 +21°C° 0 mm 1 m/s 655 mmHg 50%
    21:00 +20°C° 0 mm 1 m/s 655 mmHg 54%
    22:00 +19°C° 0 mm 1 m/s 655 mmHg 57%
    23:00 +18°C° 0 mm 1 m/s 655 mmHg 57%

    Mâine, 30 Mai, Marţi

    Timp Temperatura Precipitaţii Vânt Presiune Umiditate
    00:00 +18°C° 0 mm 1 m/s 655 mmHg 57%
    01:00 +16°C° 0 mm 1 m/s 655 mmHg 57%
    02:00 +15°C° 0 mm 1 m/s 654 mmHg 61%
    03:00 +15°C° 0 mm 1 m/s 654 mmHg 65%
    04:00 +14°C° 0 mm 1 m/s 654 mmHg 69%
    05:00 +15°C° 0 mm 1 m/s 654 mmHg 70%
    06:00 +15°C° 0 mm 1 m/s 655 mmHg 72%
    07:00 +16°C° 0 mm 1 m/s 655 mmHg 73%
    08:00 +20°C° 0 mm 2 m/s 656 mmHg 61%
    09:00 +24°C° 0 mm 2 m/s 657 mmHg 49%
    10:00 +28°C° 0 mm 3 m/s 658 mmHg 37%
    11:00 +29°C° 0 mm 2 m/s 658 mmHg 33%
    12:00 +30°C° 0 mm 2 m/s 658 mmHg 29%
    13:00 +32°C° 0 mm 2 m/s 657 mmHg 24%
    14:00 +31°C° 0 mm 2 m/s 657 mmHg 27%
    15:00 +30°C° 0 mm 1 m/s 656 mmHg 30%
    16:00 +29°C° 0 mm 1 m/s 655 mmHg 34%
    17:00 +27°C° 0 mm 1 m/s 655 mmHg 37%
    18:00 +25°C° 0 mm 2 m/s 655 mmHg 40%
    19:00 +24°C° 0 mm 2 m/s 655 mmHg 43%
    20:00 +21°C° 0 mm 2 m/s 656 mmHg 50%
    21:00 +20°C° 0 mm 2 m/s 656 mmHg 57%
    22:00 +19°C° 0 mm 1 m/s 656 mmHg 64%
    23:00 +18°C° 0 mm 1 m/s 655 mmHg 70%

    Poimâine, 31 Mai, Miercuri

    Timp Temperatura Precipitaţii Vânt Presiune Umiditate
    00:00 +16°C° 0 mm 1 m/s 655 mmHg 76%
    01:00 +15°C° 0 mm 1 m/s 654 mmHg 82%
    02:00 +14°C° 0 mm 1 m/s 654 mmHg 82%
    03:00 +14°C° 0 mm 1 m/s 654 mmHg 82%
    04:00 +14°C° 0 mm 1 m/s 653 mmHg 81%
    05:00 +14°C° 0 mm 1 m/s 654 mmHg 77%
    06:00 +15°C° 0 mm 1 m/s 655 mmHg 73%
    07:00 +15°C° 0 mm 1 m/s 655 mmHg 68%
    08:00 +19°C° 0 mm 2 m/s 656 mmHg 57%
    09:00 +22°C° 0 mm 3 m/s 657 mmHg 46%
    10:00 +27°C° 0 mm 4 m/s 658 mmHg 34%
    11:00 +28°C° 0 mm 3 m/s 658 mmHg 31%
    12:00 +29°C° 0 mm 3 m/s 657 mmHg 28%
    13:00 +31°C° 0 mm 2 m/s 657 mmHg 25%
    14:00 +31°C° 0 mm 2 m/s 656 mmHg 24%
    15:00 +31°C° 0 mm 2 m/s 656 mmHg 24%
    16:00 +30°C° 0 mm 2 m/s 655 mmHg 23%
    17:00 +28°C° 0 mm 2 m/s 655 mmHg 28%
    18:00 +25°C° 0 mm 2 m/s 655 mmHg 33%
    19:00 +21°C° 0 mm 2 m/s 655 mmHg 38%
    20:00 +20°C° 0 mm 2 m/s 655 mmHg 39%
    21:00 +19°C° 0 mm 2 m/s 655 mmHg 41%
    22:00 +18°C° 0 mm 2 m/s 655 mmHg 42%
    23:00 +17°C° 0 mm 2 m/s 655 mmHg 46%

    1 Iunie, Joi

    Timp Temperatura Precipitaţii Vânt Presiune Umiditate
    00:00 +16°C° 0 mm 2 m/s 654 mmHg 50%
    01:00 +14°C° 0 mm 2 m/s 654 mmHg 53%
    02:00 +14°C° 0 mm 2 m/s 654 mmHg 56%
    03:00 +13°C° 0 mm 1 m/s 654 mmHg 58%
    04:00 +12°C° 0 mm 1 m/s 653 mmHg 60%
    05:00 +13°C° 0 mm 1 m/s 654 mmHg 59%
    06:00 +13°C° 0 mm 1 m/s 655 mmHg 58%
    07:00 +13°C° 0 mm 1 m/s 655 mmHg 57%
    08:00 +17°C° 0 mm 2 m/s 656 mmHg 47%
    09:00 +20°C° 0 mm 3 m/s 657 mmHg 37%
    10:00 +25°C° 0 mm 4 m/s 658 mmHg 28%
    11:00 +27°C° 0 mm 3 m/s 658 mmHg 25%
    12:00 +28°C° 0 mm 3 m/s 657 mmHg 23%
    13:00 +30°C° 0 mm 2 m/s 657 mmHg 20%
    14:00 +30°C° 0 mm 2 m/s 656 mmHg 20%
    15:00 +30°C° 0 mm 1 m/s 656 mmHg 20%
    16:00 +30°C° 0 mm 1 m/s 655 mmHg 19%
    17:00 +26°C° 0 mm 1 m/s 655 mmHg 26%
    18:00 +22°C° 0 mm 1 m/s 654 mmHg 32%
    19:00 +18°C° 0 mm 2 m/s 654 mmHg 38%
    20:00 +17°C° 0 mm 2 m/s 654 mmHg 40%
    21:00 +16°C° 0 mm 2 m/s 654 mmHg 43%
    22:00 +15°C° 0 mm 2 m/s 654 mmHg 45%
    23:00 +14°C° 0 mm 1 m/s 654 mmHg 48%

    2 Iunie, Vineri

    Timp Temperatura Precipitaţii Vânt Presiune Umiditate
    00:00 +13°C° 0 mm 1 m/s 654 mmHg 50%
    01:00 +12°C° 0 mm 1 m/s 653 mmHg 53%
    02:00 +12°C° 0 mm 1 m/s 653 mmHg 54%
    03:00 +12°C° 0 mm 1 m/s 653 mmHg 55%
    04:00 +11°C° 0 mm 1 m/s 653 mmHg 56%
    05:00 +12°C° 0 mm 1 m/s 654 mmHg 55%
    06:00 +12°C° 0 mm 1 m/s 654 mmHg 55%
    07:00 +13°C° 0 mm 2 m/s 655 mmHg 54%
    08:00 +17°C° 0 mm 2 m/s 656 mmHg 45%
    09:00 +20°C° 0 mm 3 m/s 657 mmHg 36%
    10:00 +25°C° 0 mm 3 m/s 658 mmHg 28%
    11:00 +27°C° 0 mm 3 m/s 657 mmHg 25%
    12:00 +28°C° 0 mm 2 m/s 657 mmHg 22%
    13:00 +30°C° 0 mm 2 m/s 656 mmHg 19%
    14:00 +30°C° 0 mm 1 m/s 656 mmHg 20%
    15:00 +30°C° 0 mm 1 m/s 656 mmHg 20%
    16:00 +28°C° 0 mm 0 m/s 655 mmHg 20%
    17:00 +24°C° 0 mm 0 m/s 655 mmHg 30%
    18:00 +22°C° 0 mm 1 m/s 654 mmHg 39%
    19:00 +18°C° 0 mm 1 m/s 654 mmHg 49%
    20:00 +16°C° 0 mm 1 m/s 654 mmHg 49%
    21:00 +15°C° 0 mm 1 m/s 654 mmHg 49%
    22:00 +15°C° 0 mm 1 m/s 654 mmHg 49%
    23:00 +14°C° 0 mm 1 m/s 654 mmHg 50%

    3 Iunie, Sâmbătă

    Timp Temperatura Precipitaţii Vânt Presiune Umiditate
    00:00 +14°C° 0 mm 1 m/s 654 mmHg 51%
    01:00 +13°C° 0 mm 1 m/s 654 mmHg 53%
    02:00 +13°C° 0 mm 1 m/s 653 mmHg 53%
    03:00 +12°C° 0 mm 1 m/s 653 mmHg 54%
    04:00 +12°C° 0 mm 1 m/s 653 mmHg 54%
    05:00 +12°C° 0 mm 1 m/s 653 mmHg 53%
    06:00 +12°C° 0 mm 1 m/s 654 mmHg 53%
    07:00 +13°C° 0 mm 1 m/s 654 mmHg 52%
    08:00 +18°C° 0 mm 1 m/s 655 mmHg 42%
    09:00 +21°C° 0 mm 2 m/s 656 mmHg 33%
    10:00 +26°C° 0 mm 2 m/s 658 mmHg 23%
    11:00 +28°C° 0 mm 2 m/s 657 mmHg 21%
    12:00 +29°C° 0 mm 2 m/s 657 mmHg 19%
    13:00 +31°C° 0 mm 2 m/s 656 mmHg 17%
    14:00 +31°C° 0 mm 1 m/s 656 mmHg 17%
    15:00 +30°C° 0 mm 1 m/s 655 mmHg 17%
    16:00 +30°C° 0 mm 1 m/s 655 mmHg 18%
    17:00 +26°C° 0 mm 1 m/s 654 mmHg 26%
    18:00 +22°C° 0 mm 1 m/s 654 mmHg 34%
    19:00 +18°C° 0 mm 1 m/s 653 mmHg 43%
    20:00 +16°C° 0 mm 2 m/s 653 mmHg 42%
    21:00 +16°C° 0 mm 2 m/s 653 mmHg 41%
    22:00 +15°C° 0 mm 2 m/s 654 mmHg 40%
    23:00 +14°C° 0 mm 1 m/s 653 mmHg 44%
    Arată mai mult